This is the latest recevied weather packets stored in our database for station/object OK1FET-1. If no packets are shown the sender has not sent any weather packets the latest 10 day(s).
| Time | Temp. | Humidity | Pressure | Rain* | Wind** | Luminosity | Snow |
|---|---|---|---|---|---|---|---|
| 1788419662 | 22.78° C | 80% | 1026.2 hPa | - | - | - | - |
| 1788419054 | 22.78° C | 79% | 1026.2 hPa | - | - | - | - |
| 1788417840 | 22.22° C | 79% | 1026.1 hPa | - | - | - | - |
| 1788417233 | 21.67° C | 82% | 1026 hPa | - | - | - | - |
| 1788416626 | 21.11° C | 82% | 1026 hPa | - | - | - | - |
| 1788416019 | 20.56° C | 80% | 1026 hPa | - | - | - | - |
| 1788415413 | 20° C | 82% | 1025.9 hPa | - | - | - | - |
| 1788414808 | 19.44° C | 81% | 1025.7 hPa | - | - | - | - |
| 1788414203 | 17.22° C | 82% | 1025.7 hPa | - | - | - | - |
| 1788412390 | 14.44° C | 89% | 1025.7 hPa | - | - | - | - |
| 1788411182 | 12.78° C | 92% | 1025.5 hPa | - | - | - | - |
| 1788410578 | 12.78° C | 92% | 1025.5 hPa | - | - | - | - |
| 1788409370 | 12.78° C | 91% | 1025.6 hPa | - | - | - | - |
| 1788408766 | 13.33° C | 90% | 1025.4 hPa | - | - | - | - |
| 1788407559 | 13.33° C | 89% | 1025.3 hPa | - | - | - | - |
| 1788405143 | 13.89° C | 88% | 1025.4 hPa | - | - | - | - |
| 1788404539 | 13.89° C | 88% | 1025.4 hPa | - | - | - | - |
| 1788403934 | 14.44° C | 87% | 1025.5 hPa | - | - | - | - |
| 1788403330 | 13.89° C | 88% | 1025.4 hPa | - | - | - | - |
| 1788402122 | 13.89° C | 88% | 1025.3 hPa | - | - | - | - |
| 1788397290 | 14.44° C | 91% | 1025.4 hPa | - | - | - | - |
| 1788396082 | 13.89° C | 92% | 1025.4 hPa | - | - | - | - |
| 1788395478 | 13.89° C | 93% | 1025.4 hPa | - | - | - | - |
| 1788394874 | 13.89° C | 93% | 1025.3 hPa | - | - | - | - |
| 1788394270 | 13.89° C | 93% | 1025.3 hPa | - | - | - | - |
* Rain since midnight (hover to see other rain measurements)
** Current wind speed in m/s (hover to see current wind gust speed)